Regional Weather Roundup
Issued by NWS Cleveland, OH

Home | Current Version | Previous Version | Graphics & Text | Print | Product List | Glossary On
Versions: 1 2 3 4 5 6 7 8 9 10 11 12 13 14 15 16 17 18 19 20 21 22 23 24 25 26 27 28 29 30 31 32 33 34 35 36 37 38 39 40 41 42 43 44 45 46 47 48 49 50
000
ASUS41 KCLE 180810
RWRCLE
OHIO REGIONAL WEATHER ROUNDUP
NATIONAL WEATHER SERVICE CLEVELAND, OH
300 AM EST THU DEC 18 2014

NOTE: "FAIR" INDICATES FEW OR NO CLOUDS BELOW 12,000 FEET WITH NO
SIGNIFICANT WEATHER AND/OR OBSTRUCTIONS TO VISIBILITY.

OHZ001>008-015>018-024>027-034-035-043-044-180900-
   NORTHWEST OHIO

CITY           SKY/WX    TMP DP  RH WIND       PRES   REMARKS
DEFIANCE       NOT AVBL
FINDLAY        CLOUDY    29  21  72 W10       30.22S WCI  20
TOLEDO EXPRESS CLOUDY    28  21  74 W9        30.22S WCI  20
TOLEDO EXEC    CLOUDY    29  20  69 W9        30.22S WCI  20
LIMA           CLOUDY    30  20  66 NW12      30.23S WCI  20
$$

OHZ009>014-019>023-028>033-038-089-180900-
   NORTHEAST OHIO

CITY           SKY/WX    TMP DP  RH WIND       PRES   REMARKS
CLE-HOPKINS    CLOUDY    29  19  66 W17       30.21R WCI  17
CLE-LAKEFRONT  CLOUDY    31  22  69 W21       30.19R WCI  18
CUY CO. ARPT   NOT AVBL
LORAIN-ELYRIA  CLOUDY    28  20  71 W12G20    30.21R WCI  18
ASHTABULA      CLOUDY    30  21  69 W14       30.15R WCI  19
AKRON-CANTON   CLOUDY    28  20  71 W13       30.17R WCI  17
WOOSTER        CLOUDY    27  21  78 NW12      30.20R WCI  17
MANSFIELD      CLOUDY    26  20  77 W9G17     30.19R WCI  17
YOUNGSTOWN     FLURRIES  28  21  75 W13G18    30.14R WCI  17
$$

OHZ042-051>053-060>062-070>072-077>081-180900-
  SOUTHWEST OHIO

CITY           SKY/WX    TMP DP  RH WIND       PRES   REMARKS
CINC-COVINGTON CLOUDY    26  18  71 N7        30.28R WCI  18
CINC-LUNKEN    CLOUDY    27  20  75 CALM      30.32S
HAMILTON       CLOUDY    27  20  75 CALM      30.31S
DAYTON         CLOUDY    27  19  72 W8        30.26S WCI  19
WRIGHT-PAT AFB CLOUDY    27  19  71 W6        30.27R WCI  20
DAYTON GENERAL CLOUDY    26  20  77 W5        30.26R WCI  20
WILMINGTON     CLOUDY    25  18  74 W7        30.26R WCI  17
$$

OHZ036-037-039>041-045>050-054>059-063>069-073>076-082>088-180900-
  CENTRAL AND SOUTHEAST OHIO

CITY           SKY/WX    TMP DP  RH WIND       PRES   REMARKS
COLUMBUS       CLOUDY    27  18  69 NW8       30.24S WCI  19
OSU AIRPORT    CLOUDY    27  19  72 NW6       30.24S WCI  20
BOLTON FIELD   CLOUDY    27  20  75 MISG      30.25R
RICKENBACK AFB CLOUDY    28  19  70 W7        30.25R WCI  20
NEWARK         CLOUDY    28  19  69 NW9       30.24R WCI  19
MARION         CLOUDY    27  19  72 NW9       30.23R WCI  18
LANCASTER      CLOUDY    28  19  69 W6        30.25R WCI  22
ZANESVILLE     CLOUDY    27  18  69 NW9       30.23R WCI  18
NEW PHILLY     CLOUDY    29  20  69 NW12      30.22R WCI  19
$$



USA.gov is the U.S. government's official web portal to all federal, state and local government web resources and services.